Wind_Speed
10 10 10 10 10 10 10 10 10 10 10 10 10 9 10 10 11 11 12 12 12 13 14 14 14 14 14 15 15 16 17 18 18 19 20 20 20 20 20 20 20 20 20
11 11 11 11 11 11 11 11 11 11 12 12 12 11 11 11 12 12 12 13 13 14 14 14 14 15 16 16 17 17 18 18 19 19 20 20 21 21 21 21 21 21 21
12 12 13 13 13 13 13 13 13 13 13 13 13 13 13 12 13 13 14 14 14 14 15 15 16 16 17 17 17 18 18 19 20 21 21 21 22 22 22 22 22 23 23
14 14 15 15 15 15 15 14 14 15 15 15 15 15 15 14 14 15 15 15 15 15 15 15 16 17 18 19 19 19 19 20 21 22 22 23 23 23 23 23 24 24 24
16 16 16 17 17 17 17 17 17 17 17 17 17 17 17 17 16 17 16 16 16 16 16 17 17 18 19 20 20 20 21 21 22 23 23 23 23 24 25 25 25 25 25
19 18 18 19 20 20 20 20 19 19 19 20 20 19 18 19 19 19 19 18 18 18 18 18 19 20 21 21 21 21 22 23 23 24 24 23 23 25 26 26 26 26 27
21 21 21 21 22 22 21 21 22 21 21 20 21 20 20 20 20 20 20 20 20 20 20 21 21 21 22 22 23 23 23 24 24 25 25 25 25 26 27 27 27 28 29
25 25 25 25 24 23 23 23 23 23 22 21 21 20 19 20 20 20 21 22 22 22 22 22 22 23 23 24 24 25 25 26 26 26 25 25 26 27 28 29 29 30 30
26 26 26 27 26 24 24 24 24 24 24 23 22 21 21 21 21 22 22 23 23 24 24 24 24 24 25 25 25 26 26 27 27 27 27 28 28 29 29 30 30 31 31
28 27 28 28 27 26 26 25 25 25 25 25 25 23 23 23 23 24 24 25 25 26 26 26 26 27 27 27 27 28 28 29 29 29 29 29 30 31 31 32 32 32 32
30 30 30 30 29 29 28 27 27 26 26 26 25 25 25 25 26 27 27 27 27 28 28 28 28 29 28 28 29 29 30 30 31 31 31 31 32 32 32 33 33 34 34
32 32 32 31 30 30 30 30 29 28 27 27 27 27 28 28 28 28 29 30 29 30 30 30 30 30 30 30 31 31 31 32 32 32 32 32 33 33 33 34 34 34 34
33 33 34 33 32 33 33 33 32 31 29 29 29 29 29 29 30 30 30 31 31 31 31 31 31 32 33 33 33 33 33 33 33 33 34 34 34 34 35 36 36 35 35
35 35 35 34 35 35 35 35 34 34 33 31 31 31 31 31 31 32 32 31 31 32 32 32 32 32 33 33 33 33 33 34 34 34 35 35 35 36 36 37 37 37 37
36 35 36 36 37 36 35 35 35 35 34 34 33 33 33 33 34 34 34 34 33 34 34 34 34 34 34 35 35 35 35 36 36 37 36 36 36 37 37 37 38 38 39
36 35 35 35 35 35 35 36 36 36 36 36 35 35 35 35 36 36 36 35 35 35 35 35 35 36 36 36 36 37 37 38 38 38 38 38 38 39 39 39 39 39 39
37 36 35 36 36 36 37 37 37 38 38 36 36 37 37 38 37 37 37 37 36 36 36 36 37 38 38 38 38 38 39 39 39 39 39 39 39 40 39 39 40 40 40
35 36 36 36 37 38 37 37 38 38 38 37 38 39 39 39 38 38 38 37 37 37 38 38 39 39 39 39 39 39 39 40 39 39 39 39 39 39 39 40 40 40 40
37 37 37 38 38 38 37 37 38 38 38 38 39 39 38 38 38 38 38 38 39 39 39 39 39 39 40 40 40 40 40 40 40 39 39 39 39 40 40 40 40 40 41
36 37 37 38 38 38 37 37 37 37 37 36 36 37 37 37 37 37 38 38 39 39 38 39 40 40 40 40 41 41 40 39 39 39 40 40 40 40 40 40 40 40 40
36 36 37 37 37 37 36 36 36 37 37 37 37 37 36 36 37 38 38 38 38 38 38 38 39 40 40 40 40 39 39 39 39 39 39 40 40 40 40 40 40 40 40
33 34 35 36 36 37 36 36 36 36 36 37 37 37 37 38 38 38 38 39 39 38 38 39 39 40 40 39 39 39 39 39 39 39 40 40 40 40 40 39 39 39 40
33 33 34 35 36 36 36 36 35 35 35 36 37 37 38 38 38 37 37 37 37 38 38 38 38 38 38 38 38 38 39 39 39 40 40 40 40 40 39 40 40 40 39
33 33 33 33 34 34 34 35 36 35 34 35 35 35 36 37 37 37 37 36 36 37 36 36 37 37 37 37 38 38 38 39 39 39 39 39 39 40 40 40 40 40 39
31 32 32 32 32 32 33 34 34 34 33 33 33 34 35 35 35 34 34 34 34 34 35 36 35 36 36 37 37 37 38 38 39 39 39 39 39 39 39 39 39 39 39
29 29 29 30 30 30 30 31 31 31 32 32 33 33 33 32 32 32 32 32 33 33 34 34 35 35 36 36 37 37 37 37 37 37 37 38 38 39 39 39 39 39 39
Wind_Direction
329 330 330 331 332 331 329 328 326 322 322 323 320 316 314 309 308 308 306 302 302 303 299 294 294 289 291 289 291 291 287 286 285 286 283 281 281 282 280 280 282 283 282
320 321 322 322 326 327 325 323 321 319 318 316 313 311 309 309 307 305 306 305 305 305 301 296 294 293 290 289 291 290 288 287 287 287 285 281 281 283 281 282 282 282 282
310 311 313 315 317 317 315 315 315 313 310 310 309 306 303 303 303 304 305 305 304 304 302 297 294 295 292 291 292 290 289 289 288 286 285 283 281 280 280 281 282 282 282
301 302 303 305 307 306 307 307 307 307 305 304 304 304 299 298 298 298 300 301 303 304 303 300 298 297 294 293 293 292 290 291 291 289 287 286 283 281 279 280 281 282 283
295 295 295 297 299 299 299 299 298 300 299 297 297 299 296 295 296 297 297 297 299 301 302 301 300 299 299 296 295 294 294 293 292 291 290 289 289 285 281 282 282 283 283
292 289 289 291 292 291 292 293 293 294 297 295 289 290 291 290 289 291 294 294 297 299 299 300 301 301 299 298 296 294 293 293 293 292 290 289 288 287 285 284 283 283 284
294 290 288 287 289 288 287 290 289 291 295 298 296 289 287 288 290 289 290 292 294 296 297 297 298 300 299 298 296 294 294 294 293 293 291 289 288 287 287 286 286 286 286
289 291 288 285 284 284 283 285 287 288 290 294 295 294 291 294 293 290 288 290 293 294 294 295 298 299 299 299 296 293 293 294 294 293 292 292 290 288 288 287 287 287 287
286 287 287 287 283 280 281 283 284 285 287 289 291 293 293 292 292 292 291 288 289 291 293 295 296 296 297 297 296 295 295 295 293 292 291 291 289 289 289 289 288 287 287
284 285 287 287 284 282 282 284 282 283 284 286 287 287 288 289 289 289 291 288 288 289 290 293 294 294 294 295 295 295 294 294 293 293 292 291 290 289 288 288 288 288 287
283 282 282 284 283 283 283 282 281 280 283 284 283 285 287 288 287 287 289 290 288 288 289 290 292 292 293 295 295 294 294 294 293 292 291 291 290 289 289 289 288 287 287
279 280 280 281 280 281 283 283 283 280 282 283 283 284 285 286 288 287 287 288 289 288 288 288 290 292 293 294 293 294 294 293 293 292 291 290 289 289 288 288 288 287 287
278 279 279 279 278 279 280 282 284 283 282 284 286 285 285 287 287 290 288 286 286 287 289 289 291 292 292 292 292 293 293 293 293 293 291 290 289 288 288 288 288 288 288
278 277 277 278 278 278 279 280 282 284 284 286 287 288 287 287 288 289 287 286 286 286 287 289 291 292 292 292 292 293 294 294 294 294 293 292 291 290 290 289 289 289 288
276 275 276 276 277 277 279 281 282 284 284 285 285 285 287 286 288 288 286 284 285 286 288 289 290 291 292 292 292 292 293 293 293 292 292 291 290 290 290 290 290 289 289
273 273 274 274 277 277 280 281 283 285 285 283 282 282 283 285 285 287 286 284 284 286 286 286 287 288 290 291 292 292 292 293 292 292 291 290 290 290 289 289 289 289 289
270 270 271 273 274 276 278 279 281 283 283 282 281 282 282 283 283 284 283 282 283 285 285 285 287 287 288 290 290 291 291 292 292 291 291 290 290 290 288 288 288 288 289
269 269 271 272 274 275 276 279 281 282 282 282 282 282 281 282 282 281 282 281 283 285 285 286 287 287 288 289 289 290 290 291 291 291 290 290 289 289 289 289 288 288 288
270 271 271 273 274 274 276 279 280 282 283 282 282 282 283 282 281 281 282 283 284 284 285 285 286 288 288 288 289 289 289 290 290 290 290 289 289 289 289 289 290 289 289
271 272 273 275 277 276 277 279 281 282 282 283 282 282 283 284 283 282 281 282 282 282 283 284 286 287 287 287 288 288 288 289 289 289 289 289 289 289 289 288 289 290 290
269 271 274 276 277 276 276 278 280 281 282 284 285 284 283 284 283 282 282 282 282 282 283 284 286 286 286 287 287 288 288 288 289 289 289 289 290 290 290 289 289 289 289
268 270 272 273 275 276 276 278 279 280 281 282 283 283 284 284 285 285 284 284 284 284 285 285 286 286 287 287 287 287 287 288 289 290 289 289 289 289 289 290 290 290 289
270 271 273 274 274 275 276 277 278 279 280 281 282 284 285 286 287 286 285 286 287 287 286 286 287 286 286 286 287 287 287 288 288 289 290 291 291 291 291 290 290 290 289
270 271 273 275 276 277 277 277 278 278 280 282 284 285 286 286 286 287 287 288 287 287 287 287 287 286 285 286 287 288 288 288 288 289 290 291 291 291 291 292 292 291 291
271 273 274 275 277 278 279 279 279 279 280 282 285 286 287 286 287 288 288 288 288 288 288 288 288 288 288 288 288 289 289 289 290 290 290 291 291 291 292 293 293 292 292
273 274 275 276 278 279 280 280 281 281 281 283 286 287 287 287 288 289 290 290 290 290 290 290 290 290 290 290 290 291 290 291 292 292 291 292 292 293 293 293 294 293 293
Height
5894 5892 5891 5889 5888 5887 5885 5884 5883 5882 5880 5879 5877 5875 5874 5873 5871 5871 5870 5868 5867 5866 5865 5864 5863 5862 5861 5860 5859 5858 5857 5856 5855 5854 5853 5852 5851 5850 5849 5848 5847 5846 5845
5892 5891 5890 5888 5886 5885 5884 5883 5882 5880 5879 5877 5875 5874 5872 5871 5869 5868 5867 5866 5865 5863 5862 5861 5860 5859 5858 5856 5855 5854 5853 5852 5851 5849 5848 5847 5846 5845 5844 5843 5842 5841 5840
5890 5889 5888 5886 5884 5883 5882 5880 5879 5878 5877 5875 5873 5872 5870 5868 5867 5866 5865 5863 5862 5860 5859 5858 5856 5855 5854 5853 5851 5850 5848 5847 5846 5844 5843 5842 5840 5839 5838 5837 5836 5835 5834
5886 5885 5884 5883 5881 5880 5879 5878 5876 5875 5873 5872 5870 5869 5867 5865 5864 5863 5862 5860 5859 5857 5856 5854 5853 5851 5850 5848 5847 5845 5844 5842 5841 5839 5838 5836 5834 5833 5832 5831 5830 5829 5828
5882 5881 5880 5879 5877 5876 5875 5874 5872 5871 5869 5867 5866 5865 5863 5862 5860 5859 5858 5857 5855 5853 5852 5850 5849 5847 5845 5844 5842 5841 5839 5837 5835 5834 5832 5830 5828 5827 5826 5825 5824 5823 5821
5878 5876 5875 5874 5873 5871 5870 5869 5868 5866 5864 5863 5861 5860 5859 5857 5856 5854 5853 5852 5851 5849 5848 5846 5844 5842 5840 5839 5837 5835 5833 5832 5829 5828 5826 5824 5822 5821 5819 5818 5817 5816 5815
5872 5871 5869 5868 5866 5865 5864 5863 5862 5861 5859 5857 5855 5853 5853 5851 5850 5849 5848 5847 5846 5844 5842 5841 5839 5837 5835 5833 5831 5829 5827 5825 5823 5822 5820 5818 5816 5815 5813 5811 5810 5809 5807
5866 5865 5863 5861 5859 5857 5856 5856 5855 5854 5853 5852 5849 5848 5847 5846 5844 5843 5842 5841 5840 5838 5836 5834 5833 5831 5829 5827 5825 5823 5821 5819 5817 5815 5813 5811 5809 5808 5806 5804 5802 5801 5799
5859 5857 5855 5854 5851 5849 5849 5849 5848 5848 5847 5846 5844 5842 5841 5840 5839 5837 5836 5835 5833 5832 5830 5828 5827 5825 5823 5821 5819 5817 5815 5812 5810 5808 5805 5803 5802 5800 5798 5796 5794 5792 5790
5851 5850 5848 5847 5844 5843 5842 5841 5841 5840 5839 5838 5837 5836 5835 5834 5832 5831 5829 5828 5826 5825 5823 5822 5820 5818 5816 5814 5812 5810 5808 5805 5803 5800 5798 5796 5794 5792 5790 5788 5786 5783 5781
5843 5842 5841 5839 5837 5836 5835 5834 5833 5833 5831 5830 5829 5829 5828 5827 5825 5824 5822 5821 5819 5818 5816 5814 5812 5810 5808 5806 5804 5802 5800 5797 5795 5792 5790 5788 5785 5783 5781 5779 5776 5774 5772
5834 5833 5832 5831 5830 5828 5827 5827 5825 5824 5823 5822 5821 5821 5820 5819 5818 5816 5815 5813 5811 5810 5808 5806 5804 5802 5800 5798 5796 5793 5791 5789 5786 5784 5781 5779 5776 5774 5771 5769 5767 5764 5762
5824 5824 5823 5822 5821 5821 5820 5818 5816 5815 5814 5813 5813 5812 5812 5810 5809 5807 5806 5804 5802 5801 5799 5798 5796 5793 5791 5789 5786 5784 5782 5779 5777 5774 5771 5769 5766 5764 5762 5759 5756 5754 5752
5814 5814 5813 5813 5812 5811 5810 5809 5808 5807 5806 5804 5803 5803 5801 5800 5799 5798 5796 5794 5793 5791 5790 5788 5786 5784 5782 5779 5777 5775 5772 5770 5767 5764 5761 5759 5756 5754 5751 5749 5746 5743 5741
5804 5803 5802 5802 5802 5801 5800 5799 5798 5797 5796 5795 5794 5793 5792 5791 5789 5788 5786 5784 5782 5781 5779 5778 5776 5774 5772 5769 5767 5765 5762 5760 5757 5754 5751 5748 5745 5743 5740 5738 5735 5733 5730
5792 5792 5792 5792 5791 5791 5790 5789 5788 5787 5785 5783 5783 5783 5782 5781 5779 5777 5776 5774 5772 5771 5769 5767 5765 5763 5761 5759 5756 5754 5751 5749 5746 5743 5740 5737 5735 5732 5729 5727 5724 5721 5719
5780 5781 5782 5782 5781 5780 5779 5779 5778 5777 5775 5772 5771 5771 5771 5770 5768 5767 5765 5764 5762 5760 5758 5756 5754 5752 5750 5748 5745 5743 5740 5737 5734 5732 5729 5726 5723 5720 5718 5715 5712 5709 5707
5769 5770 5770 5771 5770 5770 5769 5768 5767 5765 5764 5762 5761 5760 5759 5758 5757 5755 5754 5752 5750 5749 5747 5745 5743 5741 5738 5736 5733 5731 5728 5725 5723 5720 5717 5714 5712 5709 5706 5703 5700 5698 5695
5758 5758 5759 5759 5759 5758 5757 5757 5755 5754 5753 5751 5750 5748 5747 5746 5745 5744 5742 5741 5739 5737 5735 5733 5731 5728 5726 5724 5721 5719 5716 5714 5711 5708 5705 5702 5700 5697 5694 5691 5688 5685 5683
5746 5747 5747 5747 5747 5747 5746 5745 5744 5742 5741 5739 5738 5737 5735 5734 5733 5732 5730 5728 5726 5724 5723 5720 5718 5716 5714 5711 5709 5706 5704 5701 5699 5696 5693 5691 5688 5685 5682 5679 5676 5674 5671
5734 5735 5735 5735 5735 5734 5734 5733 5732 5731 5730 5729 5728 5726 5725 5723 5722 5720 5718 5715 5714 5712 5710 5708 5706 5704 5701 5699 5696 5694 5692 5689 5686 5684 5681 5678 5675 5672 5670 5667 5664 5661 5658
5722 5723 5723 5723 5723 5723 5723 5722 5721 5720 5719 5718 5717 5716 5714 5712 5711 5709 5707 5704 5702 5700 5698 5696 5694 5691 5689 5687 5684 5682 5679 5677 5674 5671 5668 5666 5663 5660 5657 5654 5651 5648 5645
5711 5711 5711 5711 5711 5711 5711 5711 5710 5709 5708 5707 5706 5704 5702 5701 5698 5696 5695 5693 5690 5688 5686 5684 5682 5679 5677 5675 5672 5670 5667 5664 5662 5659 5656 5653 5650 5647 5644 5642 5639 5636 5633
5700 5700 5700 5700 5700 5700 5700 5699 5698 5697 5696 5695 5694 5693 5691 5689 5687 5685 5683 5681 5679 5677 5674 5672 5670 5667 5665 5662 5660 5658 5655 5652 5649 5646 5644 5641 5638 5635 5632 5629 5626 5623 5620
5690 5690 5691 5691 5690 5689 5689 5688 5688 5687 5686 5685 5683 5682 5680 5678 5676 5674 5672 5669 5667 5665 5663 5661 5659 5656 5653 5651 5648 5646 5643 5640 5637 5634 5631 5629 5626 5623 5620 5617 5614 5611 5607
5681 5681 5681 5681 5680 5680 5679 5678 5677 5676 5675 5674 5672 5671 5669 5667 5665 5663 5661 5659 5657 5655 5652 5650 5647 5645 5642 5639 5636 5634 5631 5628 5625 5622 5619 5617 5614 5611 5608 5605 5601 5598 5594